Temperature
21 21 21 21 24 25 24 23 24 23 23 22 22 22 23 22 22 21 18 17 17 17 17 17 18 18 18 17 17 17 17 17 17 18 18 18 18 18 18 18 18 18 18 18 18 18 18 18 18
21 21 21 23 25 24 23 23 23 23 22 22 22 22 22 21 20 19 18 17 17 17 17 17 17 17 17 17 17 17 17 17 17 17 17 18 18 18 18 18 18 18 18 18 18 18 18 18 18
21 22 22 25 25 24 23 23 23 23 22 22 22 22 22 20 19 18 17 17 17 17 17 17 17 17 17 17 17 17 17 17 17 17 17 17 17 17 17 17 17 17 17 17 18 18 18 18 18
21 22 24 25 24 24 24 24 23 23 22 22 22 22 20 19 18 18 17 17 17 17 17 17 17 17 17 17 17 17 17 17 17 17 17 17 17 17 17 17 17 17 17 17 17 17 17 17 17
22 24 25 24 23 24 24 23 23 24 23 22 22 22 20 18 18 18 17 17 17 17 17 17 17 17 17 17 17 17 17 17 17 17 17 17 17 17 17 17 17 17 17 17 17 17 17 17 17
23 25 24 24 23 24 24 23 23 23 23 22 22 22 20 18 18 18 17 17 17 17 17 17 17 17 17 17 17 17 17 17 17 17 17 17 17 17 17 17 17 17 17 17 17 17 17 17 17
24 25 24 24 23 23 24 23 23 23 23 22 22 22 20 18 18 18 17 17 17 17 17 17 17 17 17 17 17 17 17 17 17 17 17 17 17 17 17 17 17 17 17 17 17 17 17 17 17
23 25 24 24 23 23 23 23 23 23 23 21 21 22 21 19 18 18 18 17 17 17 17 17 17 17 17 17 17 17 17 17 17 17 17 17 17 16 16 16 16 16 17 17 17 17 17 17 16
23 25 24 24 24 24 23 23 22 22 22 21 21 21 20 19 18 18 18 18 17 17 17 17 17 17 17 17 17 17 17 17 17 17 17 16 16 16 16 16 16 16 16 16 16 16 16 16 16
24 24 24 24 24 24 23 23 23 23 23 22 21 20 19 19 18 18 18 18 18 18 18 17 17 17 17 16 16 16 16 16 16 16 16 16 16 16 16 16 16 16 16 16 16 16 16 16 16
24 24 24 24 23 23 23 23 23 23 23 23 22 20 19 19 19 19 19 19 18 18 17 17 17 17 17 17 16 16 16 16 16 16 16 16 16 16 16 16 16 16 16 16 16 15 15 15 15
24 24 24 23 22 23 23 23 23 23 22 22 21 20 20 19 19 19 19 19 18 18 18 17 17 17 17 17 17 16 16 16 16 16 16 16 16 16 16 16 16 16 16 16 15 15 15 15 15
24 24 23 22 22 22 22 22 22 22 21 21 21 20 20 20 19 19 19 19 18 18 18 17 17 17 17 17 16 16 16 16 16 16 16 16 16 16 16 16 15 16 15 15 15 15 15 15 15
23 23 23 23 23 22 23 23 22 22 21 21 20 20 20 20 19 19 19 19 18 18 18 17 17 17 17 17 17 17 16 16 16 16 16 16 16 16 15 15 15 15 15 15 15 15 15 15 15
23 24 23 23 23 23 23 23 23 21 21 21 21 20 20 20 19 19 19 19 19 18 18 18 17 17 17 17 17 17 16 16 16 16 16 16 16 16 16 15 15 15 15 15 15 15 15 15 15
24 24 23 23 23 22 23 23 23 21 21 21 21 21 20 19 19 19 18 18 18 18 18 18 17 17 17 17 17 17 16 16 16 16 16 16 16 16 15 15 15 15 15 15 15 15 15 14 14
24 23 23 23 23 23 23 23 22 21 21 21 21 21 20 19 19 19 18 18 18 18 18 18 17 17 17 17 17 17 17 16 16 16 16 16 16 16 15 15 15 15 15 15 15 15 14 14 14
23 24 23 23 23 23 23 23 23 21 21 21 21 20 20 20 19 19 18 18 18 18 18 18 17 17 17 17 17 17 17 16 16 16 16 16 16 16 15 15 15 15 15 15 15 15 14 14 14
24 23 23 23 23 23 22 23 23 22 21 21 21 20 20 19 19 18 18 18 18 18 18 18 17 17 17 17 17 17 17 16 16 16 16 16 16 16 15 15 15 15 15 15 14 14 14 14 14
23 23 23 23 22 22 22 22 23 22 21 21 21 20 20 19 19 18 18 18 18 17 17 17 17 17 17 17 17 17 17 16 16 16 16 16 16 16 15 15 15 15 15 15 14 14 14 14 14
23 23 23 22 22 22 22 22 22 22 21 20 20 20 19 19 19 18 17 17 17 17 17 17 17 17 17 17 17 16 16 16 16 16 16 16 16 16 15 15 15 15 15 14 14 14 14 14 14
22 22 22 22 22 22 22 22 22 22 21 21 20 19 19 18 18 18 17 17 17 17 17 17 17 17 17 17 16 16 16 16 16 16 16 16 16 16 15 15 15 15 15 14 14 14 14 14 14
22 22 22 22 22 22 22 22 22 22 21 21 21 19 19 18 18 17 17 16 16 16 16 16 17 17 17 17 16 16 16 16 16 16 16 16 15 15 15 15 15 15 15 14 14 14 14 14 13
21 22 22 22 22 21 22 22 21 22 21 21 20 19 18 18 17 17 16 16 16 16 16 16 16 16 16 16 16 16 16 16 16 16 16 15 15 15 15 15 15 15 14 14 14 14 14 13 13
22 22 21 21 21 21 21 21 21 21 21 20 20 19 18 17 17 16 16 15 15 16 16 16 16 16 16 16 16 15 15 15 15 15 15 15 15 15 15 15 14 14 14 14 14 13 13 13 13
21 22 21 21 21 21 21 21 21 21 20 19 19 18 18 17 16 16 15 15 15 15 15 15 15 15 15 15 15 15 15 15 15 15 15 15 15 15 15 14 14 14 14 14 13 13 13 13 13
21 21 22 21 21 21 21 21 21 20 20 19 18 18 17 16 16 15 15 15 15 15 15 15 15 15 15 15 15 15 15 15 15 15 14 14 14 14 14 14 14 14 14 13 13 13 13 13 13
21 21 21 20 20 20 21 21 21 20 19 19 18 18 17 16 16 15 15 14 14 14 14 14 14 14 14 14 14 14 14 14 14 14 14 14 14 14 14 14 14 14 14 13 13 13 13 13 13
19 20 20 20 20 20 20 21 20 19 19 19 18 17 16 16 15 15 14 14 14 14 14 14 14 14 14 14 14 14 14 14 14 14 14 14 13 13 13 13 13 13 13 13 13 13 13 12 12
20 20 20 19 20 20 19 20 19 19 18 18 17 16 16 15 14 14 14 14 14 14 14 14 13 13 13 13 13 13 13 13 13 13 13 13 13 13 13 13 13 13 13 13 13 13 13 12 12
Wind_Speed
3 1 2 2 1 4 6 5 4 4 4 5 5 5 6 6 5 5 4 4 4 5 6 7 7 6 7 8 8 9 9 9 9 9 10 10 11 12 12 11 11 12 12 12 12 11 11 10 10
1 1 2 1 2 5 6 5 6 6 5 4 5 5 6 6 6 6 5 5 5 6 6 8 8 7 7 8 8 8 9 9 9 9 10 10 11 11 11 11 12 12 12 12 12 11 11 11 10
1 1 1 1 3 5 6 6 6 6 4 2 4 5 5 5 5 4 5 6 6 6 7 9 8 8 8 8 8 9 9 9 9 10 10 11 10 11 12 12 12 13 13 12 12 12 12 11 10
1 1 1 4 8 7 6 6 5 6 4 3 4 6 6 5 4 6 7 6 7 6 7 9 8 8 8 8 8 9 9 9 9 10 11 11 11 11 12 12 13 13 12 12 12 12 12 12 11
1 1 4 7 8 6 5 4 3 4 4 4 5 7 7 6 7 8 8 6 6 6 7 9 8 9 9 9 9 9 9 9 10 11 11 12 12 12 13 12 12 12 12 12 12 12 12 13 12
1 1 5 7 8 6 5 4 4 5 6 5 5 7 6 6 7 8 7 6 6 6 6 8 8 8 9 9 9 9 9 10 10 11 11 12 13 13 13 12 12 12 13 13 13 13 13 13 13
1 3 5 7 7 6 4 3 4 5 6 5 4 6 6 7 7 7 7 6 6 5 5 6 6 7 8 10 10 9 10 10 10 11 11 11 12 12 12 13 13 13 13 13 13 13 13 13 13
1 3 6 6 6 6 4 4 3 3 5 5 3 4 6 8 8 7 7 6 5 5 5 5 6 6 6 8 10 10 10 10 10 10 9 8 9 11 11 12 13 13 13 13 13 13 13 13 13
1 3 5 5 5 6 5 5 4 3 6 5 4 5 7 11 10 8 7 6 5 4 4 4 5 5 6 7 8 8 8 8 7 8 8 5 8 9 9 13 13 13 13 12 12 12 11 10 11
1 3 5 4 3 5 5 5 5 5 6 6 6 6 9 10 9 8 7 7 6 5 4 4 4 5 5 5 5 5 6 6 6 7 6 6 7 8 9 12 12 12 11 11 10 8 7 6 7
3 4 4 3 2 3 5 5 4 4 3 3 6 8 10 10 9 7 6 6 5 5 4 4 3 4 4 4 4 4 4 5 5 6 6 6 6 6 7 6 8 8 8 8 7 6 7 8 7
4 4 3 3 3 3 4 4 3 2 1 2 4 8 10 10 9 7 6 5 5 4 4 3 3 4 4 4 4 3 4 4 4 4 6 5 4 5 5 5 6 6 6 6 6 6 7 8 8
4 3 3 3 4 4 4 3 2 1 1 3 5 7 9 9 8 6 5 5 5 4 4 4 3 3 4 4 3 3 3 3 4 4 4 5 4 4 4 5 5 5 5 5 5 6 7 7 8
4 4 4 3 3 3 3 3 2 1 2 5 6 8 8 8 8 7 6 5 5 5 4 4 4 3 3 4 3 3 3 3 3 3 3 4 4 4 4 4 4 5 5 5 4 6 5 5 6
4 4 4 2 2 2 2 3 2 1 3 5 6 7 7 7 7 6 6 5 5 5 4 4 4 4 4 4 3 3 3 3 3 3 3 3 4 4 4 3 4 4 4 5 5 5 5 5 5
5 5 4 2 0 1 3 1 2 1 3 4 4 6 6 6 6 6 5 4 4 4 4 5 4 4 4 4 3 3 3 3 2 3 2 3 3 3 3 3 3 3 4 3 3 3 3 4 4
5 5 4 3 1 2 3 2 1 1 3 3 4 5 5 6 6 5 5 5 4 4 4 5 5 5 5 4 4 3 3 2 2 2 2 2 3 3 3 2 2 3 3 3 2 3 3 3 4
5 5 4 4 2 3 4 3 1 1 2 2 3 4 5 5 5 5 5 5 4 4 4 4 5 4 4 4 4 3 2 2 2 1 2 2 2 2 3 2 2 2 2 2 2 3 2 2 2
5 5 5 3 2 3 4 4 2 1 2 2 3 4 4 5 4 4 5 5 5 4 4 4 4 4 4 4 4 3 3 2 2 1 1 1 2 2 2 1 1 1 1 1 2 2 2 2 1
6 6 5 3 2 3 4 5 4 2 3 3 3 3 4 4 4 4 4 5 5 5 5 5 5 5 5 4 4 3 2 2 1 1 1 1 2 2 1 1 1 1 1 2 2 2 1 1 0
7 7 5 4 3 5 5 6 5 3 3 2 3 3 3 3 4 4 4 4 4 5 5 6 6 6 5 5 3 3 2 2 2 2 1 1 2 2 2 1 1 1 1 2 2 2 1 1 0
7 5 6 6 6 5 5 6 4 4 3 3 3 3 3 3 3 3 4 4 4 4 4 5 6 5 5 5 4 4 4 3 2 2 2 2 2 2 2 2 1 1 1 2 2 2 2 1 1
5 4 7 7 8 8 7 7 3 3 3 2 2 2 3 3 3 3 3 3 3 3 3 3 4 5 5 5 5 5 4 3 2 2 2 2 2 2 2 2 2 1 1 2 2 2 2 2 1
4 5 5 6 6 8 6 7 4 2 2 2 1 2 2 2 2 2 2 2 3 3 2 2 3 4 4 5 5 5 5 4 3 3 3 2 2 1 2 2 2 2 2 2 2 2 2 2 1
6 6 5 6 6 5 2 5 3 0 1 2 3 2 1 1 2 2 2 2 2 3 3 2 2 3 4 5 5 5 5 4 4 4 3 3 2 2 2 2 2 2 2 2 3 3 3 3 3
8 8 6 5 5 4 4 5 2 1 1 2 2 2 0 1 2 2 2 2 2 3 3 3 3 2 2 3 4 4 4 3 3 4 4 3 2 2 2 2 2 2 2 2 2 3 3 3 3
7 8 7 7 6 7 5 4 3 1 1 2 2 2 1 1 1 2 2 2 2 2 3 3 3 3 3 3 3 4 4 4 4 4 3 3 3 2 3 2 2 2 2 2 2 3 3 3 3
4 4 5 6 6 7 7 6 3 2 2 2 2 2 2 1 1 1 2 2 1 2 2 2 3 3 3 3 3 2 3 4 3 3 3 3 3 3 3 3 3 2 2 2 2 2 3 3 2
5 5 5 6 6 6 6 3 1 2 2 3 2 2 2 1 0 1 1 1 1 2 2 2 2 2 3 3 3 3 3 3 3 3 3 3 3 3 3 3 3 3 3 2 2 2 3 3 3
6 7 7 7 7 7 7 4 3 1 2 2 2 2 1 1 0 0 1 1 1 1 1 1 2 2 2 3 3 3 3 3 3 3 3 3 3 3 3 3 3 3 3 3 3 3 3 3 4
Wind_Direction
186 202 235 231 167 98 85 83 89 99 83 66 65 62 61 48 36 71 90 85 79 86 83 84 66 66 70 75 76 73 71 70 73 75 76 75 74 73 75 77 78 77 75 78 83 84 85 85 84
262 246 234 229 134 112 92 90 91 81 94 98 79 69 69 67 60 89 102 94 91 86 81 72 66 67 69 74 78 76 74 72 74 74 76 77 75 74 75 76 78 77 75 76 78 80 83 85 84
186 272 320 89 89 89 99 95 98 101 99 103 89 62 55 71 83 95 98 111 99 87 80 75 61 67 71 73 77 79 78 77 77 75 76 75 76 76 76 77 77 77 77 76 76 77 81 82 82
245 192 123 100 94 80 92 103 112 123 102 80 97 87 79 69 82 101 114 113 101 90 85 80 63 67 68 70 75 76 75 77 77 77 75 75 74 77 78 78 78 78 78 77 76 77 79 79 78
279 129 115 106 97 93 92 97 126 117 101 95 98 97 92 87 97 113 118 112 101 91 85 83 68 68 67 69 75 76 74 74 75 74 74 73 74 77 78 78 79 79 80 80 77 76 78 77 77
130 129 122 112 106 104 104 119 130 107 104 105 107 105 97 112 119 122 120 113 104 98 92 90 84 72 67 70 75 75 75 75 75 74 74 74 75 78 78 80 80 82 81 80 77 77 77 77 75
97 103 109 115 116 112 103 113 113 113 110 107 115 109 117 128 128 132 127 119 112 105 95 88 95 93 86 77 74 78 78 76 76 76 74 75 78 78 77 79 79 81 81 80 80 80 80 77 75
68 124 120 117 123 111 115 119 101 101 101 111 128 118 129 142 140 137 133 128 121 110 97 89 89 91 99 97 82 78 78 76 77 79 79 84 92 87 83 83 77 78 80 80 80 80 80 77 73
190 140 126 121 123 114 129 130 114 110 117 116 104 96 116 138 147 146 142 138 131 120 106 95 93 93 93 92 97 96 91 82 92 95 94 97 88 85 87 78 76 76 80 81 80 81 83 84 81
145 129 114 111 116 117 134 132 136 137 128 128 126 122 133 147 157 157 151 147 142 134 117 105 100 100 96 92 100 96 93 91 83 84 90 87 83 80 82 89 82 80 80 87 84 88 95 81 76
112 115 115 118 119 131 137 130 141 143 129 144 154 152 154 161 165 165 158 149 141 132 125 124 115 107 103 101 92 90 89 88 84 81 86 89 90 94 87 89 91 85 82 77 88 88 71 68 64
123 112 121 111 114 139 143 136 136 146 90 103 145 156 162 168 170 169 164 155 153 145 139 138 131 126 116 108 101 99 95 91 85 83 81 85 86 85 86 83 79 75 71 66 66 71 72 70 69
133 120 105 110 120 130 134 145 144 134 132 120 135 153 164 168 171 170 168 167 166 161 161 154 155 142 130 114 112 111 103 98 99 88 87 90 91 87 88 84 81 75 72 70 69 74 72 67 64
126 129 121 119 123 126 139 139 154 117 151 152 152 158 166 170 172 170 175 179 172 175 173 160 169 162 151 140 140 117 109 111 99 94 92 95 95 90 88 84 79 73 70 67 70 78 77 71 68
151 144 133 112 123 131 163 149 147 101 159 165 167 164 166 172 175 180 183 187 181 178 179 171 177 178 170 152 137 122 124 116 105 101 103 104 100 102 98 87 82 78 79 76 69 77 77 77 76
170 179 173 140 145 183 219 195 75 116 179 176 176 170 170 175 182 184 186 192 191 180 181 173 179 187 180 168 158 142 135 118 109 106 106 107 109 108 101 95 89 89 85 81 74 74 80 79 76
194 201 191 173 179 199 221 247 63 115 187 195 195 185 179 177 184 187 184 186 187 185 178 169 175 182 181 172 163 149 145 132 119 116 111 108 110 114 113 102 104 98 88 82 81 74 74 80 80
206 215 214 212 189 203 217 237 208 160 184 211 200 198 193 191 188 182 183 179 181 184 177 167 167 176 170 168 170 161 157 151 129 117 123 120 125 128 118 129 126 116 115 103 98 96 86 80 86
226 227 232 225 203 226 233 246 253 207 204 226 217 204 202 201 189 183 183 184 183 184 183 175 174 174 173 174 180 181 177 173 156 128 123 141 153 154 141 150 133 133 139 136 117 105 108 97 95
222 227 227 209 191 239 245 252 261 250 230 242 245 224 209 203 187 187 194 193 194 194 199 193 185 182 183 187 187 176 168 174 163 154 153 152 152 153 145 168 158 161 159 160 138 129 125 93 102
223 232 234 237 235 224 253 254 233 220 220 228 243 242 220 213 201 190 190 197 200 203 202 201 192 186 185 180 179 167 163 179 179 182 169 143 156 157 159 175 173 176 189 174 170 174 177 179 112
229 231 237 232 245 246 243 268 244 222 219 234 239 238 235 222 213 197 189 191 195 202 208 205 194 188 183 180 184 186 192 195 206 191 165 146 145 154 160 168 188 176 172 188 187 197 204 201 201
238 235 233 240 253 260 244 258 251 201 242 248 243 239 240 226 213 201 193 193 192 182 191 210 196 186 182 185 185 197 199 199 191 184 172 169 153 152 157 177 183 184 180 197 185 195 223 207 217
201 208 212 224 241 250 249 250 261 225 256 294 288 267 260 238 202 192 176 167 166 164 169 188 197 191 183 186 192 196 201 198 189 188 186 179 159 165 169 187 195 198 199 207 198 195 210 226 221
214 227 232 227 227 242 220 246 248 104 339 309 313 297 281 234 185 172 161 159 163 165 168 171 175 186 190 191 195 198 203 203 200 195 194 191 183 185 190 189 210 220 221 225 215 209 224 225 223
218 229 242 254 253 260 226 239 210 113 332 325 322 319 287 165 164 164 164 159 158 164 174 178 177 180 180 191 199 200 196 200 210 205 200 201 202 198 199 197 207 222 236 231 224 229 228 237 233
220 227 253 263 265 263 241 225 213 168 308 357 10 15 27 108 151 148 146 152 153 163 177 183 179 173 168 179 186 197 196 196 205 207 208 207 207 207 205 202 212 218 233 239 227 233 230 236 238
251 224 222 237 252 256 249 243 248 236 302 340 354 353 4 36 120 118 122 137 144 138 157 176 181 179 173 176 182 181 193 197 203 203 204 209 210 215 215 213 212 210 217 232 235 239 245 237 234
190 206 230 238 246 258 261 249 36 309 327 331 346 347 353 28 76 128 121 123 130 122 142 167 174 176 177 182 184 182 185 195 198 206 208 217 212 214 221 230 226 221 220 228 230 244 244 243 237
234 228 230 241 241 245 261 267 71 11 347 334 343 4 8 3 40 78 119 124 120 138 154 171 179 178 185 190 192 197 188 190 195 207 216 221 222 220 224 229 236 233 229 228 230 238 244 246 251
Height
1504 1504 1504 1505 1504 1505 1511 1512 1510 1512 1513 1516 1516 1515 1515 1517 1519 1526 1527 1525 1525 1525 1524 1523 1523 1522 1522 1521 1521 1521 1520 1520 1520 1519 1519 1519 1518 1518 1517 1517 1517 1517 1516 1515 1516 1517 1518 1519 1519
1505 1505 1507 1506 1503 1511 1516 1511 1512 1513 1516 1518 1518 1518 1517 1521 1524 1525 1526 1526 1526 1526 1526 1525 1524 1524 1523 1523 1523 1522 1522 1521 1521 1521 1521 1520 1520 1520 1519 1519 1519 1519 1519 1519 1519 1519 1520 1520 1520
1505 1506 1508 1504 1506 1511 1515 1512 1513 1516 1518 1518 1519 1520 1521 1524 1526 1527 1527 1527 1528 1528 1527 1526 1525 1525 1525 1524 1524 1524 1523 1523 1523 1522 1522 1522 1522 1521 1521 1521 1521 1521 1521 1521 1521 1522 1522 1522 1522
1507 1508 1508 1506 1512 1512 1512 1513 1515 1516 1518 1519 1519 1521 1524 1527 1527 1528 1528 1529 1529 1529 1529 1528 1527 1527 1526 1526 1526 1525 1525 1524 1524 1524 1524 1523 1523 1523 1523 1523 1523 1522 1523 1523 1523 1523 1523 1523 1523
1508 1508 1507 1511 1513 1513 1513 1515 1516 1516 1518 1520 1520 1522 1526 1528 1528 1529 1530 1530 1531 1531 1530 1530 1528 1528 1528 1527 1527 1527 1526 1526 1526 1525 1525 1525 1525 1524 1524 1524 1524 1524 1524 1524 1524 1524 1524 1524 1524
1510 1507 1509 1514 1515 1514 1515 1517 1517 1517 1519 1521 1522 1523 1527 1529 1530 1530 1531 1532 1532 1532 1532 1531 1530 1529 1529 1529 1528 1528 1528 1528 1527 1527 1527 1526 1526 1526 1526 1526 1526 1526 1526 1526 1526 1526 1526 1525 1525
1510 1507 1510 1513 1515 1515 1516 1518 1517 1518 1519 1522 1523 1524 1528 1530 1531 1531 1532 1532 1533 1533 1533 1533 1533 1531 1531 1530 1530 1530 1530 1529 1529 1529 1528 1528 1528 1528 1528 1528 1528 1528 1528 1528 1527 1527 1527 1526 1526
1510 1509 1512 1513 1515 1516 1518 1519 1520 1520 1521 1524 1525 1525 1528 1531 1531 1532 1533 1534 1534 1535 1535 1535 1534 1534 1533 1533 1532 1531 1531 1531 1531 1530 1530 1530 1530 1530 1530 1529 1529 1529 1529 1529 1529 1528 1528 1528 1527
1511 1511 1514 1514 1515 1516 1518 1519 1521 1522 1523 1525 1525 1527 1528 1530 1531 1533 1534 1535 1535 1535 1536 1536 1536 1535 1535 1535 1533 1533 1533 1532 1532 1532 1532 1532 1533 1532 1532 1531 1531 1530 1530 1530 1530 1530 1530 1529 1529
1511 1511 1514 1514 1514 1515 1518 1519 1521 1522 1523 1524 1526 1528 1529 1530 1532 1533 1534 1535 1536 1536 1537 1537 1537 1537 1537 1536 1536 1535 1535 1535 1535 1535 1534 1534 1534 1534 1533 1533 1532 1532 1532 1532 1531 1531 1531 1531 1531
1511 1512 1513 1515 1516 1517 1518 1520 1521 1521 1522 1524 1526 1527 1529 1530 1532 1533 1534 1535 1536 1537 1537 1537 1538 1538 1538 1537 1537 1537 1537 1536 1536 1536 1536 1535 1535 1535 1535 1535 1535 1534 1534 1534 1533 1534 1533 1533 1532
1513 1514 1515 1516 1518 1518 1519 1520 1521 1522 1523 1524 1525 1527 1528 1530 1531 1533 1534 1536 1537 1537 1538 1538 1538 1538 1539 1538 1538 1538 1538 1538 1538 1538 1538 1537 1537 1537 1537 1537 1537 1536 1536 1535 1535 1535 1535 1535 1534
1513 1515 1517 1518 1519 1519 1520 1521 1522 1523 1524 1525 1526 1527 1528 1530 1531 1533 1534 1536 1537 1537 1538 1538 1538 1539 1539 1539 1539 1539 1539 1539 1539 1538 1539 1539 1539 1539 1539 1538 1538 1538 1537 1537 1537 1537 1536 1536 1535
1515 1516 1517 1518 1519 1520 1520 1521 1522 1523 1524 1525 1526 1527 1528 1530 1532 1533 1534 1535 1536 1537 1538 1539 1539 1539 1540 1540 1540 1540 1540 1540 1540 1540 1540 1540 1540 1540 1540 1540 1539 1539 1539 1538 1538 1538 1537 1537 1536
1516 1516 1517 1518 1519 1520 1520 1521 1522 1523 1524 1525 1526 1527 1528 1530 1531 1533 1534 1535 1536 1537 1538 1538 1539 1539 1540 1540 1541 1541 1541 1541 1541 1541 1541 1541 1541 1541 1541 1541 1541 1540 1540 1540 1539 1539 1539 1538 1537
1514 1514 1518 1518 1519 1520 1521 1522 1521 1523 1524 1524 1525 1526 1528 1529 1531 1532 1533 1534 1535 1536 1537 1538 1538 1539 1540 1540 1541 1541 1542 1542 1542 1542 1542 1542 1542 1542 1542 1541 1541 1541 1541 1540 1540 1540 1540 1539 1539
1513 1515 1517 1518 1518 1518 1519 1521 1521 1523 1523 1524 1524 1525 1527 1528 1530 1531 1532 1533 1534 1535 1536 1537 1537 1538 1539 1540 1540 1541 1542 1542 1542 1542 1542 1542 1543 1542 1542 1542 1542 1542 1541 1541 1541 1541 1540 1540 1539
1515 1514 1516 1517 1517 1518 1518 1519 1520 1522 1523 1522 1523 1524 1525 1527 1528 1530 1531 1532 1533 1534 1535 1536 1537 1538 1539 1539 1540 1541 1541 1542 1542 1542 1543 1543 1543 1543 1543 1542 1542 1542 1542 1541 1541 1541 1541 1540 1540
1511 1513 1515 1515 1516 1518 1518 1518 1518 1520 1522 1522 1522 1523 1524 1525 1527 1529 1529 1530 1531 1532 1534 1535 1536 1537 1537 1538 1539 1540 1541 1541 1542 1542 1542 1542 1542 1542 1543 1542 1542 1542 1542 1542 1542 1541 1541 1541 1541
1512 1513 1515 1515 1517 1517 1516 1517 1516 1519 1520 1520 1520 1521 1522 1524 1526 1527 1528 1529 1530 1531 1532 1533 1534 1535 1536 1537 1538 1539 1540 1541 1541 1541 1542 1542 1542 1542 1542 1542 1542 1542 1542 1542 1542 1541 1541 1541 1541
1512 1513 1514 1517 1517 1516 1517 1517 1514 1515 1518 1519 1520 1520 1521 1522 1523 1525 1526 1526 1528 1529 1530 1531 1532 1534 1535 1536 1537 1538 1538 1539 1540 1540 1540 1540 1541 1541 1541 1541 1541 1541 1542 1542 1541 1541 1541 1541 1540
1513 1512 1514 1516 1517 1515 1517 1519 1511 1511 1514 1517 1518 1519 1519 1521 1522 1523 1524 1524 1525 1526 1528 1529 1531 1532 1533 1534 1535 1536 1536 1537 1538 1539 1539 1539 1539 1540 1540 1540 1540 1541 1541 1541 1541 1541 1541 1540 1540
1511 1512 1513 1513 1513 1515 1514 1517 1511 1509 1513 1513 1515 1517 1518 1519 1520 1521 1522 1522 1523 1524 1525 1527 1528 1530 1531 1532 1533 1534 1535 1536 1536 1537 1537 1538 1538 1538 1538 1539 1539 1539 1539 1540 1540 1540 1540 1540 1540
1512 1512 1512 1512 1513 1520 1513 1516 1514 1508 1511 1511 1514 1515 1517 1517 1518 1519 1520 1521 1521 1522 1523 1524 1526 1527 1529 1530 1531 1532 1533 1534 1534 1535 1536 1536 1536 1537 1537 1537 1537 1538 1538 1538 1539 1538 1538 1539 1539
1511 1513 1518 1518 1519 1516 1512 1515 1513 1508 1511 1512 1513 1514 1515 1516 1517 1517 1518 1519 1519 1520 1521 1522 1523 1524 1526 1527 1529 1530 1531 1532 1533 1534 1534 1534 1535 1535 1536 1536 1536 1536 1536 1537 1537 1537 1537 1537 1537
1509 1509 1518 1523 1519 1513 1512 1513 1509 1509 1512 1513 1513 1513 1514 1515 1515 1516 1517 1518 1518 1519 1519 1520 1521 1522 1523 1525 1526 1528 1529 1530 1531 1532 1532 1533 1533 1533 1534 1534 1534 1534 1535 1535 1535 1535 1536 1536 1536
1509 1509 1508 1512 1513 1517 1509 1508 1507 1509 1510 1512 1512 1513 1513 1514 1515 1515 1516 1516 1517 1517 1518 1519 1520 1521 1521 1523 1524 1526 1527 1528 1529 1530 1531 1531 1531 1531 1532 1532 1532 1532 1533 1533 1533 1533 1534 1534 1534
1509 1508 1511 1514 1520 1519 1511 1508 1507 1507 1509 1510 1511 1512 1513 1514 1514 1515 1515 1515 1516 1516 1517 1518 1519 1519 1520 1521 1522 1524 1525 1526 1527 1528 1528 1529 1529 1529 1530 1530 1530 1530 1530 1531 1531 1531 1531 1532 1532
1512 1513 1510 1510 1511 1517 1516 1510 1506 1507 1509 1510 1512 1513 1513 1514 1514 1515 1515 1515 1515 1516 1516 1517 1517 1518 1519 1520 1521 1522 1522 1523 1524 1525 1526 1526 1527 1527 1527 1527 1528 1528 1528 1528 1528 1529 1529 1529 1530
1508 1508 1510 1514 1512 1511 1513 1513 1507 1509 1511 1512 1512 1513 1513 1513 1514 1514 1514 1514 1514 1514 1515 1516 1516 1517 1517 1518 1519 1520 1520 1521 1522 1523 1523 1524 1525 1525 1525 1525 1525 1526 1526 1526 1526 1526 1526 1527 1527